Weather History for Aitkin, MN

Change the Weather History Date:

Wednesday, March 6, 2013

  Actual Average Record
Temperature  
Mean Temperature 13 °F -  
Max Temperature 26 °F 33 °F 55 °F (2005)
Min Temperature 0 °F 8 °F -16 °F (1960)
Degree Days  
Heating Degree Days 52    
Moisture  
Dew Point 7 °F    
Average Humidity 68    
Maximum Humidity 79    
Minimum Humidity 51    
Precipitation  
Precipitation 0.01 in - - ()
Sea Level Pressure  
Sea Level Pressure 30.33 in    
Wind  
Wind Speed 2 mph (NNW)    
Max Wind Speed 9 mph    
Max Gust Speed -    
Visibility 9 miles    
Events Snow    
Averages and records for this station are not official NWS values.
T = Trace of Precipitation, MM = Missing Value Source: NWS Daily Summary

Daily Weather History Graph

Daily Weather History Graph

Search for Another Location

Airport:

Trip Planner

Search our weather history database for the weather conditions in past years. The results will help you decide how hot, cold, wet, or windy it might be!

Date:

Astronomy

Mar. 06, 2013 Rise Set
Actual Time 6:44 AM CST 6:08 PM CST
Civil Twilight 6:14 AM CST 6:38 PM CST
Nautical Twilight 5:39 AM CST 7:13 PM CST
Astronomical Twilight 5:04 AM CST 7:48 PM CST
Moon 3:09 AM CST (3/6) 12:36 PM CST (3/6)
Length of Visible Light 12h 24m
Length of Day
11h 23m
Waning Crescent, 29% of the Moon is Illuminated
Mar 6
Waning Crescent
Mar 11
New
Mar 19
First Quarter
Mar 27
Full
Apr 2
Last Quarter

Hourly Weather History & Observations

Time (CST) Temp. Windchill Dew Point Humidity Pressure Visibility Wind Dir Wind Speed Gust Speed Precip Events Conditions
12:12 AM 6.8 °F - 1.4 °F 79% 30.29 in 10.0 mi Calm Calm - N/A   Clear
12:53 AM 3.2 °F - -4.0 °F 72% 30.31 in 10.0 mi Calm Calm - N/A   Clear
1:12 AM 3.2 °F -4.2 °F -2.2 °F 78% 30.31 in 3.0 mi NW 3.5 mph - N/A   Haze
1:32 AM 12.2 °F 6.1 °F 6.8 °F 79% 30.31 in 10.0 mi NW 3.5 mph - N/A   Mostly Cloudy
1:53 AM 10.4 °F - 5.0 °F 79% 30.31 in 10.0 mi Calm Calm - N/A   Overcast
2:12 AM 14.0 °F - 8.6 °F 79% 30.31 in 7.0 mi Calm Calm - N/A Snow Light Snow
2:32 AM 12.2 °F - 6.8 °F 79% 30.31 in 7.0 mi Calm Calm - N/A Snow Light Snow
2:53 AM 14.0 °F - 8.6 °F 79% 30.31 in 5.0 mi Calm Calm - N/A Snow Light Snow
3:12 AM 15.8 °F - 8.6 °F 73% 30.31 in 10.0 mi Calm Calm - N/A Snow Light Snow
3:53 AM 15.8 °F - 10.4 °F 79% 30.32 in 10.0 mi Calm Calm - N/A   Overcast
4:12 AM 15.8 °F - 10.4 °F 79% 30.32 in 10.0 mi Calm Calm - N/A   Overcast
4:33 AM 14.0 °F - 8.6 °F 79% 30.32 in 10.0 mi Calm Calm - N/A   Mostly Cloudy
4:53 AM 14.0 °F - 8.6 °F 79% 30.33 in 10.0 mi Calm Calm - N/A   Overcast
5:53 AM 17.6 °F 9.3 °F 10.4 °F 73% 30.34 in 10.0 mi NW 5.8 mph - N/A   Overcast
6:32 AM 17.6 °F 10.7 °F 10.4 °F 73% 30.36 in 10.0 mi NW 4.6 mph - N/A Snow Light Snow
6:53 AM 17.6 °F 12.3 °F 10.4 °F 73% 30.36 in 10.0 mi NW 3.5 mph - N/A Snow Light Snow
7:12 AM 17.6 °F 10.7 °F 10.4 °F 73% 30.36 in 10.0 mi WNW 4.6 mph - N/A Snow Light Snow
7:32 AM 17.6 °F 8.2 °F 10.4 °F 73% 30.37 in 10.0 mi NW 6.9 mph - N/A Snow Light Snow
7:53 AM 17.6 °F 8.2 °F 10.4 °F 73% 30.37 in 10.0 mi NNW 6.9 mph - N/A Snow Light Snow
8:12 AM 17.6 °F 6.4 °F 10.4 °F 73% 30.38 in 10.0 mi NNW 9.2 mph - N/A Snow Light Snow
8:32 AM 17.6 °F 7.3 °F 10.4 °F 73% 30.38 in 7.0 mi NNW 8.1 mph - N/A Snow Light Snow
8:52 AM 17.6 °F 10.7 °F 10.4 °F 73% 30.38 in 5.0 mi NNW 4.6 mph - N/A Snow Light Snow
9:12 AM 19.4 °F 10.4 °F 10.4 °F 68% 30.38 in 5.0 mi NW 6.9 mph - N/A Snow Light Snow
9:32 AM 19.4 °F 12.8 °F 10.4 °F 68% 30.38 in 4.0 mi NNW 4.6 mph - N/A Snow Light Snow
9:52 AM 19.4 °F 10.4 °F 10.4 °F 68% 30.37 in 4.0 mi NNW 6.9 mph - N/A Snow Light Snow
10:13 AM 19.4 °F 11.5 °F 10.4 °F 68% 30.37 in 7.0 mi NW 5.8 mph - N/A Snow Light Snow
10:32 AM 21.2 °F 14.9 °F 10.4 °F 63% 30.37 in 7.0 mi NW 4.6 mph - N/A Snow Light Snow
10:52 AM 21.2 °F 12.6 °F 10.4 °F 63% 30.37 in 7.0 mi NNW 6.9 mph - N/A Snow Light Snow
11:13 AM 21.2 °F 13.6 °F 10.4 °F 63% 30.37 in 10.0 mi NNW 5.8 mph - N/A Snow Light Snow
11:32 AM 21.2 °F 13.6 °F 10.4 °F 63% 30.36 in 10.0 mi North 5.8 mph - N/A Snow Light Snow
11:52 AM 21.2 °F 13.6 °F 10.4 °F 63% 30.36 in 10.0 mi North 5.8 mph - N/A   Unknown
12:13 PM 21.2 °F 16.4 °F 10.4 °F 63% 30.35 in 7.0 mi North 3.5 mph - N/A Snow Light Snow
12:33 PM 21.2 °F 16.4 °F 10.4 °F 63% 30.34 in 10.0 mi NNW 3.5 mph - N/A Snow Light Snow
12:52 PM 23.0 °F 15.8 °F 10.4 °F 59% 30.34 in 10.0 mi NW 5.8 mph - N/A   Overcast
1:13 PM 24.8 °F - 10.4 °F 54% 30.33 in 10.0 mi Calm Calm - N/A   Overcast
1:33 PM 24.8 °F 20.5 °F 10.4 °F 54% 30.32 in 10.0 mi NNW 3.5 mph - 0.01 in   Overcast
1:52 PM 24.8 °F - 10.4 °F 54% 30.32 in 10.0 mi Calm Calm - 0.01 in   Unknown
2:13 PM 24.8 °F - 10.4 °F 54% 30.31 in 10.0 mi Calm Calm - N/A   Unknown
2:33 PM 24.8 °F - 10.4 °F 54% 30.31 in 10.0 mi Calm Calm - N/A   Scattered Clouds
2:52 PM 24.8 °F 20.5 °F 10.4 °F 54% 30.31 in 10.0 mi North 3.5 mph - N/A   Unknown
3:13 PM 24.8 °F - 10.4 °F 54% 30.31 in 10.0 mi Calm Calm - N/A   Unknown
3:33 PM 24.8 °F 20.5 °F 10.4 °F 54% 30.30 in 10.0 mi North 3.5 mph - N/A   Unknown
3:52 PM 24.8 °F - 10.4 °F 54% 30.30 in 10.0 mi Calm Calm - N/A   Unknown
4:13 PM 26.6 °F 22.6 °F 10.4 °F 51% 30.30 in 10.0 mi North 3.5 mph - N/A   Unknown
4:33 PM 26.6 °F - 10.4 °F 51% 30.30 in 10.0 mi Calm Calm - N/A   Clear
4:52 PM 26.6 °F - 10.4 °F 51% 30.30 in 10.0 mi Calm Calm - N/A   Clear
5:13 PM 26.6 °F - 10.4 °F 51% 30.30 in 10.0 mi Calm Calm - N/A   Clear
5:33 PM 24.8 °F - 10.4 °F 54% 30.29 in 10.0 mi Calm Calm - N/A   Clear
5:52 PM 21.2 °F - 8.6 °F 58% 30.30 in 10.0 mi Calm Calm - N/A   Clear
6:13 PM 21.2 °F - 8.6 °F 58% 30.30 in 10.0 mi Calm Calm - N/A   Clear
6:33 PM 17.6 °F - 8.6 °F 68% 30.30 in 10.0 mi Calm Calm - N/A   Clear
6:52 PM 12.2 °F - 5.0 °F 73% 30.30 in 10.0 mi Calm Calm - N/A   Clear
7:13 PM 15.8 °F - 8.6 °F 73% 30.30 in 10.0 mi Calm Calm - N/A   Clear
7:32 PM 12.2 °F - 5.0 °F 73% 30.31 in 10.0 mi Calm Calm - N/A   Clear
7:52 PM 10.4 °F - 3.2 °F 73% 30.31 in 10.0 mi Calm Calm - N/A   Clear
8:13 PM 8.6 °F - 1.4 °F 73% 30.31 in 10.0 mi Calm Calm - N/A   Clear
8:32 PM 8.6 °F - 1.4 °F 73% 30.31 in 10.0 mi Calm Calm - N/A   Clear
8:52 PM 3.2 °F - -2.2 °F 78% 30.31 in 10.0 mi Calm Calm - N/A   Clear
9:13 PM 3.2 °F - -2.2 °F 78% 30.31 in 10.0 mi Calm Calm - N/A   Clear
9:32 PM 1.4 °F - -5.8 °F 72% 30.31 in 10.0 mi Calm Calm - N/A   Clear
9:52 PM 5.0 °F - -0.4 °F 78% 30.31 in 10.0 mi Calm Calm - N/A   Clear
10:13 PM 3.2 °F - -4.0 °F 72% 30.31 in 10.0 mi Calm Calm - N/A   Clear
10:32 PM -0.4 °F - -7.6 °F 72% 30.32 in 10.0 mi Calm Calm - N/A   Clear
10:52 PM 3.2 °F - -4.0 °F 72% 30.32 in 10.0 mi Calm Calm - N/A   Clear
11:13 PM 1.4 °F - -5.8 °F 72% 30.33 in 10.0 mi Calm Calm - N/A   Clear
11:32 PM 1.4 °F - -5.8 °F 72% 30.33 in 10.0 mi Calm Calm - N/A   Clear
11:52 PM 1.4 °F - -5.8 °F 72% 30.32 in 10.0 mi Calm Calm - N/A   Clear